Roswell, NM

9:56 AM MST on February 06, 2016 (GMT -0700)
Roswell Industrial

Weather History for KROW - August, 2013

Change the Weather History Date:

Monday, August 19, 2013

  Actual Average Record
Temperature  
Mean Temperature 83 °F 79 °F  
Max Temperature 99 °F 92 °F 104 °F (1994)
Min Temperature 67 °F 66 °F 54 °F (1968)
Degree Days  
Heating Degree Days 0 0  
Month to date heating degree days 0 0  
Since 1 June heating degree days 0 1  
Since 1 July heating degree days 0 0  
Cooling Degree Days 18 14  
Month to date cooling degree days 334 274  
Year to date cooling degree days 1674 1372  
Since 1 June cooling degree days 1351 1147  
Growing Degree Days 32 (Base 50)    
Moisture  
Dew Point 54 °F    
Average Humidity 42    
Maximum Humidity 66    
Minimum Humidity 18    
Precipitation  
Precipitation 0.00 in 0.07 in 1.07 in (1916)
Month to date precipitation 0.76 1.24  
Year to date precipitation 4.60 8.20  
Sea Level Pressure  
Sea Level Pressure 29.84 in    
Wind  
Wind Speed 8 mph (WSW)    
Max Wind Speed 31 mph    
Max Gust Speed 38 mph    
Visibility 10 miles    
Events      
T = Trace of Precipitation, MM = Missing Value Source: NWS Daily Summary

Daily Weather History Graph

Daily Weather History Graph

Search for Another Location

Airport or City:

Trip Planner

Search our weather history database for the weather conditions in past years. The results will help you decide how hot, cold, wet, or windy it might be!

Date:

Astronomy

Aug. 19, 2013 Rise Set
Actual Time 6:23 AM MDT 7:39 PM MDT
Civil Twilight 5:57 AM MDT 8:04 PM MDT
Nautical Twilight 5:26 AM MDT 8:35 PM MDT
Astronomical Twilight 4:54 AM MDT 9:07 PM MDT
Moon 6:32 PM MDT (8/19) 4:47 AM MDT (8/19)
Length of Visible Light 14h 07m
Length of Day
13h 15m
Waxing Gibbous, 97% of the Moon is Illuminated
Aug 19
Waxing Gibbous
Aug 20
Full
Aug 28
Last Quarter
Sep 5
New
Sep 12
First Quarter

Hourly Weather History & Observations

Time (MDT) Temp. Heat Index Dew Point Humidity Pressure Visibility Wind Dir Wind Speed Gust Speed Precip Events Conditions
12:51 AM 79.0 °F - 55.9 °F 45% 29.85 in 10.0 mi SE 11.5 mph - N/A   Clear
1:51 AM 75.9 °F - 57.9 °F 54% 29.85 in 10.0 mi SSE 8.1 mph - N/A   Clear
2:51 AM 73.0 °F - 57.9 °F 59% 29.85 in 10.0 mi West 4.6 mph - N/A   Clear
3:51 AM 73.9 °F - 57.0 °F 55% 29.84 in 10.0 mi NW 5.8 mph - N/A   Clear
4:51 AM 72.0 °F - 55.0 °F 55% 29.83 in 10.0 mi West 5.8 mph - N/A   Clear
5:51 AM 70.0 °F - 57.0 °F 63% 29.83 in 10.0 mi ESE 6.9 mph - N/A   Clear
6:51 AM 69.1 °F - 57.9 °F 68% 29.87 in 10.0 mi Calm Calm - N/A   Clear
7:51 AM 75.0 °F - 57.9 °F 55% 29.88 in 10.0 mi Calm Calm - N/A   Clear
8:51 AM 77.0 °F - 57.9 °F 52% 29.89 in 10.0 mi Calm Calm - N/A   Clear
9:51 AM 81.0 °F 81.1 °F 57.9 °F 45% 29.89 in 10.0 mi Variable 4.6 mph - N/A   Clear
10:51 AM 86.0 °F 84.9 °F 57.0 °F 37% 29.88 in 10.0 mi Calm Calm - N/A   Clear
11:51 AM 90.0 °F 87.9 °F 55.0 °F 30% 29.87 in 10.0 mi ESE 8.1 mph - N/A   Clear
12:51 PM 93.0 °F - 48.0 °F 21% 29.85 in 10.0 mi SE 10.4 mph - N/A   Clear
1:51 PM 96.1 °F 93.5 °F 53.1 °F 23% 29.82 in 10.0 mi SE 12.7 mph 19.6 mph N/A   Clear
2:51 PM 98.1 °F - 48.9 °F 19% 29.80 in 10.0 mi South 11.5 mph 23.0 mph N/A   Clear
3:44 PM 96.8 °F - 48.2 °F 19% 30.00 in 10.0 mi WSW 20.7 mph 38.0 mph N/A   Partly Cloudy
3:51 PM 97.0 °F - 48.9 °F 19% 29.78 in 10.0 mi West 23.0 mph 29.9 mph N/A   Partly Cloudy
4:51 PM 96.1 °F - 48.0 °F 19% 29.78 in 10.0 mi West 17.3 mph 24.2 mph N/A   Clear
5:51 PM 91.0 °F - 50.0 °F 24% 29.79 in 10.0 mi WNW 16.1 mph - N/A   Clear
6:51 PM 89.1 °F 86.7 °F 53.1 °F 29% 29.78 in 10.0 mi West 9.2 mph - N/A   Clear
7:51 PM 84.9 °F 83.2 °F 53.1 °F 33% 29.80 in 10.0 mi WSW 8.1 mph - N/A   Clear
8:51 PM 84.0 °F - 52.0 °F 33% 29.82 in 10.0 mi West 5.8 mph - N/A   Clear
9:51 PM 82.0 °F 81.2 °F 53.1 °F 37% 29.85 in 10.0 mi WNW 9.2 mph - N/A   Clear
10:51 PM 82.0 °F 81.2 °F 53.1 °F 37% 29.84 in 10.0 mi NW 13.8 mph - N/A   Clear
11:51 PM 78.1 °F - 54.0 °F 43% 29.84 in 10.0 mi North 9.2 mph - N/A   Clear